Flag for U.S.A. Weather past 2 weeks in Kennebunk, Maine, U.S.A.

Now
48 °F

Overcast.


Feels Like: 46 °F
Forecast: 42 / 67 °F
Wind: 6 mph from Southwest

Location: Sanford Municipal

Current Time: Sep 20, 2014 at 12:55:20 PM

Latest Report: Sep 20, 2014 at 9:35 AM


Visibility: 10 mi

Pressure: 30.31 "Hg

Humidity: 71%

Dew point: 39 °F

Location of KennebunkLocation

Historic Weather in Kennebunk — Graph

°F

Kennebunk temperature yesterday

Maximum temperature yesterday: 57 °F (at 2:55 PM)
Minimum temperature yesterday: 30 °F (at 4:55 AM)
Average temperature yesterday: 43 °F

Past Weeks' High & Low Weather Summary

 TemperatureHumidityPressure
High88 °F (Sep 5, 12:55 PM)94% (Sep 10, 11:55 PM)30.43 "Hg (Sep 10, 11:55 PM)
Low28 °F (Sep 20, 3:55 AM)31% (Sep 19, 1:15 PM)29.71 "Hg (Sep 6, 5:55 PM)
Average57 °F70%30.12 "Hg
* Reported Sep 5 9:15 AM — Sep 20 9:15 AM, Kennebunk, Weather by CustomWeather, © 2014

Note: Actual official high and low records may vary slightly from our data, if they occured in-between our weather recording intervals... More about our weather records

Advertising

Kennebunk weather history for previous 24 hours

 ConditionsComfort  
Time TempWeatherWind HumidityBarometerVisibility
9:15 AM
Sep 20
48 °FOvercast.3 mph66%30.32 "Hg10 mi
8:55 AM48 °FPartly sunny.6 mph71%30.32 "Hg10 mi
8:35 AM45 °FPartly sunny.3 mph76%30.31 "Hg10 mi
7:55 AM37 °FOvercast.No wind81%30.34 "Hg10 mi
7:35 AM34 °FPartly sunny.5 mph81%30.35 "Hg10 mi
7:15 AM32 °FClear.No wind80%30.36 "Hg10 mi
6:55 AM30 °FClear.No wind80%30.36 "Hg10 mi
6:35 AM28 °FClear.No wind86%30.35 "Hg10 mi
6:15 AM28 °FClear.No wind86%30.35 "Hg10 mi
5:55 AM28 °FClear.3 mph86%30.35 "Hg10 mi
5:35 AM28 °FClear.3 mph80%30.35 "Hg10 mi
5:15 AM28 °FClear.No wind80%30.37 "Hg10 mi
4:55 AM28 °FClear.No wind86%30.38 "Hg10 mi
4:35 AM30 °FClear.No wind80%30.38 "Hg10 mi
4:15 AM30 °FClear.No wind86%30.38 "Hg10 mi
3:55 AM28 °FClear.No wind93%30.38 "Hg10 mi
3:35 AM30 °FClear.No wind80%30.38 "Hg10 mi
3:15 AM30 °FClear.No wind80%30.38 "Hg10 mi
2:55 AM30 °FClear.No wind86%30.38 "Hg10 mi
2:35 AM30 °FClear.No wind86%30.38 "Hg10 mi
2:15 AM30 °FClear.No wind80%30.39 "Hg10 mi
1:55 AM30 °FClear.3 mph80%30.40 "Hg10 mi
1:35 AM30 °FClear.No wind86%30.40 "Hg10 mi
1:15 AM30 °FClear.No wind80%30.40 "Hg10 mi
12:55 AM30 °FClear.No wind86%30.40 "Hg10 mi
12:35 AM30 °FClear.No wind75%30.39 "Hg10 mi
12:15 AM32 °FClear.No wind80%30.40 "Hg10 mi
11:55 PM
Sep 19
30 °FClear.No wind86%30.40 "Hg10 mi
11:35 PM30 °FClear.No wind80%30.40 "Hg10 mi
11:15 PM32 °FClear.No wind80%30.41 "Hg10 mi
10:55 PM32 °FClear.No wind87%30.42 "Hg10 mi
10:35 PM34 °FClear.No wind81%30.42 "Hg10 mi
10:15 PM34 °FClear.No wind75%30.42 "Hg10 mi
9:55 PM34 °FClear.No wind81%30.42 "Hg10 mi
9:15 PM36 °FClear.No wind81%30.43 "Hg10 mi
8:55 PM37 °FClear.No wind75%30.43 "Hg10 mi
8:35 PM37 °FClear.No wind75%30.43 "Hg10 mi
8:15 PM39 °FClear.No wind70%30.42 "Hg10 mi
7:55 PM39 °FClear.No wind75%30.42 "Hg10 mi
7:35 PM39 °FSunny.No wind81%30.42 "Hg10 mi
7:15 PM43 °FSunny.No wind66%30.41 "Hg10 mi
6:55 PM46 °FSunny.3 mph57%30.41 "Hg10 mi
6:35 PM48 °FSunny.3 mph54%30.40 "Hg10 mi
6:15 PM50 °FSunny.5 mph50%30.40 "Hg10 mi
5:55 PM52 °FSunny.6 mph44%30.40 "Hg10 mi
5:35 PM52 °FSunny.5 mph44%30.40 "Hg10 mi
5:15 PM54 °FSunny.5 mph44%30.39 "Hg10 mi
4:55 PM54 °FSunny.6 mph41%30.40 "Hg10 mi
4:35 PM54 °FSunny.6 mph44%30.40 "Hg10 mi
4:15 PM54 °FPassing clouds.5 mph41%30.40 "Hg10 mi
3:55 PM54 °FSunny.9 mph41%30.39 "Hg10 mi
3:35 PM55 °FSunny.8 mph38%30.39 "Hg10 mi
3:15 PM57 °FSunny.6 mph36%30.40 "Hg10 mi
2:55 PM57 °FPassing clouds.5 mph36%30.40 "Hg10 mi
2:35 PM55 °FSunny.5 mph38%30.40 "Hg10 mi
1:55 PM55 °FSunny.5 mph33%30.41 "Hg10 mi
1:35 PM55 °FSunny.5 mph33%30.41 "Hg10 mi
1:15 PM55 °FSunny.5 mph31%30.41 "Hg10 mi
12:55 PM54 °FSunny.8 mph33%30.40 "Hg10 mi
12:35 PM54 °FSunny.6 mph33%30.40 "Hg10 mi
Weather by CustomWeather, © 2014

See weather overviewHow to use our weather pages